Barksdale AFB, LA

10:50 PM CST on December 15, 2017 (GMT -0600)
Barksdale Air Force Base

Weather History for KBAD - March, 2014

Change the Weather History Date:

Tuesday, March 4, 2014

  Actual Average Record
Temperature  
Mean Temperature 33 °F -  
Max Temperature 42 °F 61 °F 76 °F (2013)
Min Temperature 24 °F 42 °F 17 °F (2002)
Degree Days  
Heating Degree Days 32    
Moisture  
Dew Point 22 °F    
Average Humidity 67    
Maximum Humidity 78    
Minimum Humidity 49    
Precipitation  
Precipitation 0.00 in - - ()
Sea Level Pressure  
Sea Level Pressure 30.21 in    
Wind  
Wind Speed 5 mph (ENE)    
Max Wind Speed 8 mph    
Max Gust Speed -    
Visibility 10 miles    
Events      
Averages and records for this station are not official NWS values.
T = Trace of Precipitation, MM = Missing Value Source: NWS Daily Summary

Daily Weather History Graph

Daily Weather History Graph

Search for Another Location

Airport or City:

Trip Planner

Search our weather history database for the weather conditions in past years. The results will help you decide how hot, cold, wet, or windy it might be!

Date:

Astronomy

Mar. 04, 2014 Rise Set
Actual Time 6:38 AM CST 6:14 PM CST
Civil Twilight 6:14 AM CST 6:39 PM CST
Nautical Twilight 5:45 AM CST 7:07 PM CST
Astronomical Twilight 5:17 AM CST 7:36 PM CST
Moon 8:39 AM CST (3/4) 10:06 PM CST (3/4)
Length of Visible Light 12h 25m
Length of Day
11h 35m
Waxing Crescent, 15% of the Moon is Illuminated
Mar 4
Waxing Crescent
Mar 8
First Quarter
Mar 16
Full
Mar 23
Last Quarter
Mar 30
New

Hourly Weather History & Observations

Time (CST) Temp. Windchill Dew Point Humidity Pressure Visibility Wind Dir Wind Speed Gust Speed Precip Events Conditions
12:38 AM 26.6 °F 20.0 °F 19.4 °F 74% 30.30 in 10.0 mi NNE 5.8 mph - N/A   Mostly Cloudy
12:58 AM 25.9 °F 20.3 °F 19.8 °F 78% 30.33 in 10.0 mi Variable 4.6 mph - N/A   Mostly Cloudy
1:58 AM 25.7 °F 20.1 °F 19.6 °F 78% 30.32 in 10.0 mi NNE 4.6 mph - N/A   Scattered Clouds
2:58 AM 25.5 °F 16.9 °F 19.0 °F 76% 30.28 in 10.0 mi NNE 8.1 mph - N/A   Clear
3:58 AM 24.8 °F 16.1 °F 18.0 °F 75% 30.21 in 10.0 mi NE 8.1 mph - N/A   Clear
4:58 AM 24.8 °F 19.1 °F 17.6 °F 74% 30.22 in 10.0 mi NE 4.6 mph - N/A   Clear
5:58 AM 25.0 °F 20.7 °F 18.1 °F 75% 30.27 in 10.0 mi NE 3.5 mph - N/A   Clear
6:58 AM 25.3 °F 21.1 °F 18.3 °F 75% 30.28 in 10.0 mi North 3.5 mph - N/A   Clear
7:58 AM 26.1 °F - 18.1 °F 72% 30.29 in 10.0 mi Variable 2.3 mph - N/A   Mostly Cloudy
8:58 AM 26.8 °F 19.3 °F 19.0 °F 73% 30.28 in 10.0 mi North 6.9 mph - N/A   Clear
9:58 AM 28.6 °F 21.5 °F 20.3 °F 71% 30.28 in 10.0 mi North 6.9 mph - N/A   Mostly Cloudy
10:58 AM 30.7 °F 26.0 °F 21.0 °F 67% 30.26 in 10.0 mi Variable 4.6 mph - N/A   Clear
11:58 AM 33.1 °F 30.0 °F 21.6 °F 63% 30.23 in 10.0 mi Variable 3.5 mph - N/A   Partly Cloudy
12:58 PM 35.2 °F - 21.2 °F 57% 30.22 in 10.0 mi Variable 2.3 mph - N/A   Scattered Clouds
1:58 PM 37.4 °F - 21.7 °F 53% 30.18 in 10.0 mi Variable 1.2 mph - N/A   Overcast
2:58 PM 40.3 °F - 23.4 °F 51% 30.16 in 10.0 mi Variable 2.3 mph - N/A   Overcast
3:58 PM 42.4 °F 38.8 °F 24.3 °F 49% 30.13 in 10.0 mi SSE 5.8 mph - N/A   Mostly Cloudy
4:58 PM 41.9 °F - 24.1 °F 49% 30.12 in 10.0 mi ESE 2.3 mph - N/A   Overcast
5:58 PM 40.8 °F - 26.6 °F 57% 30.13 in 10.0 mi SSE 2.3 mph - N/A   Scattered Clouds
6:58 PM 38.8 °F 36.5 °F 27.1 °F 63% 30.13 in 10.0 mi SSE 3.5 mph - N/A   Clear
7:58 PM 37.2 °F 33.6 °F 26.4 °F 65% 30.14 in 10.0 mi SE 4.6 mph - N/A   Partly Cloudy
8:58 PM 36.9 °F - 25.2 °F 63% 30.14 in 10.0 mi East 2.3 mph - N/A   Clear
9:58 PM 32.9 °F 29.8 °F 25.7 °F 75% 30.14 in 10.0 mi East 3.5 mph - N/A   Clear
10:58 PM 31.6 °F 26.0 °F 25.5 °F 78% 30.12 in 10.0 mi East 5.8 mph - N/A   Clear
11:58 PM 32.2 °F 25.0 °F 25.0 °F 75% 30.09 in 10.0 mi ESE 8.1 mph - N/A   Clear